Location: Unspecified
(36.0740°N, 0.0000°E)
Time: 03:12:14
(UTC+00:00)

Tiros 1 despin weight - Visible Passes

Search period start: 05 April 2026 00:00
Search period end: 15 April 2026 00:00
Orbit: 555 x 593 km, 48.2° (Epoch: 29 March)

Date Brightness Start Highest point End Pass type
(mag) Time Alt. Az. Time Alt. Az. Time Alt. Az.
5 Apr ? 03:55:54 22° S 03:55:54 22° S 03:57:42 10° SSE visible
5 Apr ? 19:26:04 10° SSW 19:30:07 41° SE 19:32:57 18° ENE visible
5 Apr ? 21:06:41 10° W 21:09:10 28° WNW 21:09:10 28° WNW visible
6 Apr ? 19:27:49 10° SW 19:32:05 67° SE 19:36:07 12° ENE visible
6 Apr ? 21:09:10 10° W 21:12:20 27° NW 21:12:20 27° NW visible
7 Apr ? 19:29:48 10° WSW 19:34:06 78° NW 19:38:29 10° NE visible
7 Apr ? 21:11:44 10° WNW 21:15:09 23° NNW 21:15:09 23° NNW visible
8 Apr ? 19:31:59 10° WSW 19:36:11 52° NNW 19:40:27 10° NE visible
8 Apr ? 21:14:20 10° WNW 21:17:30 19° NNW 21:17:42 19° N visible
9 Apr ? 19:34:20 10° W 19:38:20 36° NNW 19:42:23 10° NE visible
9 Apr ? 21:16:54 10° NW 21:19:50 17° N 21:20:02 17° N visible
10 Apr ? 19:36:47 10° W 19:40:30 28° NNW 19:44:17 10° NE visible
10 Apr ? 21:19:22 10° NW 21:22:10 16° N 21:22:12 16° N visible
11 Apr ? 19:39:19 10° WNW 19:42:45 22° NNW 19:46:12 10° NE visible
11 Apr ? 21:21:40 10° NW 21:24:14 17° N 21:24:14 17° N visible
12 Apr ? 19:41:53 10° WNW 19:45:00 19° NNW 19:48:09 10° NE visible
12 Apr ? 21:23:48 10° NW 21:26:11 17° N 21:26:11 17° N visible
13 Apr ? 19:44:25 10° NW 19:47:18 17° N 19:50:12 10° NE visible
13 Apr ? 21:25:49 10° NW 21:28:03 19° N 21:28:03 19° N visible
14 Apr ? 19:46:50 10° NW 19:49:36 16° N 19:52:22 10° NE visible
14 Apr ? 21:27:44 10° NW 21:29:53 20° N 21:29:53 20° N visible
